Location: Elk Horn Observatory
(36.6768°N, 80.8309°W)
Time: 10:42:23
(UTC-04:00)

Envisat - Pass Details

Date: 28 January 2019
Orbit: 764 x 766 km, 98.1° (Epoch: 21 October)

Event Time Altitude Azimuth Distance (km) Brightness Sun altitude
Rises 19:41:07 0° 183° (S) 3,216 6.3 -23.4°
Reaches altitude 10° 19:43:31 10° 190° (S) 2,294 5.6 -23.9°
Maximum altitude 19:48:19 43° 261° (W) 1,068 4.1 -24.9°
Drops below altitude 10° 19:53:09 10° 333° (NNW) 2,307 5.7 -25.8°
Sets 19:55:34 0° 340° (NNW) 3,237 6.4 -26.3°
